Weather History for LTCI - January, 2012

Change the Weather History Date:

Wednesday, January 25, 2012

  Actual Average Record
Temperature  
Mean Temperature 21 °F -  
Max Temperature 32 °F 36 °F 44 °F (2006)
Min Temperature 10 °F 18 °F 5 °F (2002)
Degree Days  
Heating Degree Days 44    
Moisture  
Dew Point 12 °F    
Average Humidity 62    
Maximum Humidity 80    
Minimum Humidity 41    
Precipitation  
Precipitation 0.00 in 0.04 in - ()
Sea Level Pressure  
Sea Level Pressure 29.99 in    
Wind  
Wind Speed 5 mph ()    
Max Wind Speed 10 mph    
Max Gust Speed -    
Visibility 6.1 miles    
Events      
Averages and records for this station are not official NWS values.
T = Trace of Precipitation, MM = Missing Value Source: Averaged Metar Reports

Daily Weather History Graph

Daily Weather History Graph

Search for Another Location

Airport or City:

Trip Planner

Search our weather history database for the weather conditions in past years. The results will help you decide how hot, cold, wet, or windy it might be!

Date:

Astronomy

Jan. 25, 2012 Rise Set
Actual Time 6:17 AM EET 4:19 PM EET
Civil Twilight 5:49 AM EET 4:48 PM EET
Nautical Twilight 5:17 AM EET 5:20 PM EET
Astronomical Twilight 4:46 AM EET 5:51 PM EET
Moon 7:08 AM EET (1/25) 6:47 PM EET (1/25)
Length of Visible Light 10h 58m
Length of Day
10h 01m
Waxing Crescent, 5% of the Moon is Illuminated
Jan 25
Waxing Crescent
Jan 31
First Quarter
Feb 7
Full
Feb 14
Last Quarter
Feb 22
New

Hourly Weather History & Observations

Time (EET) Temp. Windchill Dew Point Humidity Pressure Visibility Wind Dir Wind Speed Gust Speed Precip Events Conditions
12:50 AM 21.2 °F 10.9 °F 6.8 °F 54% 30.04 in 6.2 mi SE 9.2 mph - N/A   Scattered Clouds
1:50 AM 21.2 °F 10.1 °F 6.8 °F 54% 30.04 in 6.2 mi SE 10.4 mph - N/A   Scattered Clouds
2:00 AM 21 °F - 7 °F 41%  in 12 mi SE 10.4 mph - -   Partly Cloudy
2:50 AM 21.2 °F 10.9 °F 6.8 °F 54% 30.04 in 6.2 mi SE 9.2 mph - N/A   Scattered Clouds
3:50 AM 17.6 °F - 6.8 °F 63% 30.04 in 6.2 mi Variable 2.3 mph - N/A   Scattered Clouds
4:50 AM 10.4 °F 2.2 °F 5.0 °F 79% 30.04 in 6.2 mi NE 4.6 mph - N/A   Scattered Clouds
5:50 AM 14.0 °F 6.5 °F 6.8 °F 73% 30.04 in 6.2 mi ENE 4.6 mph - N/A   Scattered Clouds
6:50 AM 12.2 °F 4.3 °F 5.0 °F 73% 30.04 in 6.2 mi NNE 4.6 mph - N/A   Scattered Clouds
7:50 AM 21.2 °F 14.9 °F 8.6 °F 58% 30.04 in 6.2 mi NE 4.6 mph - N/A   Scattered Clouds
8:00 AM 21 °F - 9 °F 46%  in 6 mi NE 4.6 mph - -   Partly Cloudy
8:50 AM 26.6 °F 17.5 °F 10.4 °F 51% 30.04 in 5.0 mi ENE 9.2 mph - N/A   Scattered Clouds
9:50 AM 28.4 °F 21.2 °F 14.0 °F 55% 30.01 in 5.0 mi ENE 6.9 mph - N/A   Scattered Clouds
10:50 AM 28.4 °F 23.3 °F 10.4 °F 47% 30.01 in 5.0 mi WNW 4.6 mph - N/A   Scattered Clouds
11:50 AM 30.2 °F 25.4 °F 14.0 °F 51% 30.01 in 6.2 mi Variable 4.6 mph - N/A   Scattered Clouds
12:50 PM 30.2 °F 25.4 °F 15.8 °F 55% 29.98 in 6.2 mi WNW 4.6 mph - N/A   Scattered Clouds
1:50 PM 30.2 °F 26.7 °F 17.6 °F 60% 29.98 in 6.2 mi North 3.5 mph - N/A   Scattered Clouds
2:00 PM 30 °F - 15 °F 41%  in 6 mi North 3.5 mph - -   Partly Cloudy
2:50 PM 30.2 °F 25.4 °F 15.8 °F 55% 29.95 in 6.2 mi NW 4.6 mph - N/A   Mostly Cloudy
3:50 PM 26.6 °F 21.2 °F 15.8 °F 64% 29.95 in 6.2 mi NNE 4.6 mph - N/A   Mostly Cloudy
4:50 PM 23.0 °F 17.0 °F 14.0 °F 68% 29.95 in 5.0 mi ENE 4.6 mph - N/A   Mostly Cloudy
5:50 PM 23.0 °F 17.0 °F 15.8 °F 74% 29.98 in 5.0 mi ENE 4.6 mph - N/A   Mostly Cloudy
6:50 PM 23.0 °F - 15.8 °F 74% 29.95 in 5.0 mi Calm Calm - N/A   Mostly Cloudy
7:50 PM 21.2 °F 14.9 °F 14.0 °F 74% 29.95 in 6.2 mi ENE 4.6 mph - N/A   Mostly Cloudy
8:00 PM 21 °F - 16 °F 71%  in 7 mi ENE 4.6 mph - -   Partly Cloudy
8:50 PM 21.2 °F - 15.8 °F 80% 29.95 in 6.2 mi Variable 2.3 mph - N/A   Mostly Cloudy
9:50 PM 24.8 °F - 17.6 °F 74% 29.95 in 6.2 mi Calm Calm - N/A   Mostly Cloudy
10:50 PM 24.8 °F - 17.6 °F 74% 29.95 in 5.0 mi Calm Calm - N/A   Mostly Cloudy
11:50 PM 24.8 °F 19.1 °F 17.6 °F 74% 29.92 in 5.0 mi East 4.6 mph - N/A   Mostly Cloudy